Regional Weather Roundup
Issued by NWS

Home | Current Version | Previous Version | Graphics & Text | Print | Product List | Glossary On
Versions: 1 2 3 4 5 6 7 8 9 10 11 12 13 14 15 16 17 18 19 20 21 22 23 24 25 26 27 28 29 30 31 32 33 34 35 36 37 38 39 40 41 42 43 44 45 46 47 48 49 50
000
ASUS45 KABQ 270210
RWRNM
NEW MEXICO REGIONAL WEATHER ROUNDUP
NATIONAL WEATHER SERVICE ALBUQUERQUE NM
800 PM MDT TUE JUL 26 2016

NOTE: "FAIR" MEANS FEW OR NO CLOUDS BELOW 12,000 FEET AGL WITH NO
       SIGNIFICANT WEATHER OR OBSTRUCTIONS TO VISION.

      THIS PRODUCT IS RELEASED AS TWO VERSIONS.  ONE VERSION NEAR
      THE TOP OF THE HOUR CONTAINING PRELIMINARY DATA FROM ALBUQUERQUE
      AND OTHER STATIONS.  A FINAL VERSION WITH ADDITIONAL DATA IS
      ISSUED ABOUT 10 MINUTES AFTER THE HOUR.

NMZ501-503-504-510>518-270300-
NORTHWEST PLATEAU/NORTHCENTRAL MOUNTAINS

CITY           SKY/WX    TMP DP  RH WIND       PRES   REMARKS
FARMINGTON     FAIR      83  45  26 NE15G22   30.15R
LOS ALAMOS     CLOUDY   N/A N/A N/A NW10G17   30.31R
SANTA FE       FAIR      79  46  31 N10       30.21R
TAOS           FAIR      73  37  27 N8        30.31S
ANGEL FIRE     FAIR      58  54  85 CALM      30.43R

$$
NMZ402-403-502-505>509-270300-
WESTCENTRAL MOUNTAINS/SOUTHWEST MOUNTAINS

CITY           SKY/WX    TMP DP  RH WIND       PRES   REMARKS
GALLUP         FAIR      83  42  23 CALM      30.21R
GRANTS         FAIR      80  44  27 NW6       30.23R
SILVER CITY    FAIR      82  53  36 N6        30.13R

$$
NMZ407-409-411-412-270300-
SOUTHERN DESERTS

CITY           SKY/WX    TMP DP  RH WIND       PRES   REMARKS
LORDSBURG      MOCLDY    88  52  29 E6        30.02R
DEMING         FAIR      89  53  29 N8        30.02R
LAS CRUCES     FAIR      87  51  28 E7        30.04R
HOLLOMAN AFB   FAIR      89  55  31 S13       30.00R
ALAMOGORDO     FAIR      86  55  35 S9        30.03R
T OR C         FAIR      84  53  34 NW10      30.07R

$$
NMZ519>523-270300-
CENTRAL VALLEYS/CENTRAL HIGHLANDS

CITY           SKY/WX    TMP DP  RH WIND       PRES   REMARKS
ALBUQUERQUE    MOCLDY    87  50  27 N16       30.11R
DOUBLE EAGLE   MOCLDY    81  52  36 N13       30.17R
MORIARTY ARPT  DRIZZLE   69  58  66 E13       30.24R
CLINES CORNERS LGT RAIN  63  59  87 S8        30.32R
BELEN          MOCLDY    78  56  47 N12G18    30.12R
SOCORRO        FAIR      85  50  29 W12G17    30.07R

$$
NMZ524>526-539-540-270300-
SOUTHCENTRAL MOUNTAINS

CITY           SKY/WX    TMP DP  RH WIND       PRES   REMARKS
RUIDOSO          N/A     73  50  43 SE8       30.29R

$$
NMZ527>531-270300-
NORTHEAST HIGHLANDS/NORTHEAST PLAINS

CITY           SKY/WX    TMP DP  RH WIND       PRES   REMARKS
LAS VEGAS      LGT RAIN  62  55  77 E16       30.29F
RATON          LGT RAIN  58  54  86 SE18G28   30.26R
CLAYTON        FAIR      81  49  32 S7        30.12R

$$
NMZ532>537-270300-
EASTCENTRAL PLAINS

CITY           SKY/WX    TMP DP  RH WIND       PRES   REMARKS
TUCUMCARI      FAIR      83  56  39 S8        30.03R
CANNON AFB     FAIR      79  61  54 CALM      30.08R
CLOVIS AIRPORT FAIR      79  54  41 W6        30.08R

$$
NMZ028-029-538-270300-
SOUTHEAST PLAINS

CITY           SKY/WX    TMP DP  RH WIND       PRES   REMARKS
ROSWELL        FAIR      86  57  37 S5        30.02R
ARTESIA        FAIR      84  59  42 SE10      30.02R
CARLSBAD       FAIR      79  68  69 SW3       30.00R
HOBBS          FAIR      81  64  57 SE8       30.06R


$$




USA.gov is the U.S. government's official web portal to all federal, state and local government web resources and services.